Tracking 28790 objects as of 18-Apr-2024
HD Live streaming from Space Station
objects crossing your sky now

NATO 3A

Track NATO 3A now!
NATO 3A is classified as:


NORAD ID: 8808
Int'l Code: 1976-035A
Perigee: 35,820.4 km
Apogee: 36,009.5 km
Inclination: 6.8 °
Period: 1,442.3 minutes
Semi major axis: 42285 km
RCS: 7.2313 m2 (large)
Launch date: April 22, 1976
Source: North Atlantic Treaty Organization (NATO)
Launch site: AIR FORCE EASTERN TEST RANGE (AFETR)
Your satellite tracking list
Your tracking list is empty




NASA's NSSDC Master Catalog

Two Line Element Set (TLE):
1 08808U 76035A   24108.71930633  .00000096  00000-0  00000-0 0  9997
2 08808   6.7878 302.4232 0022368 308.9527  75.5672  0.99840938739385
Source of the keplerian elements: AFSPC